Location: Praha
(50.0830°N, 14.4670°E)
Time: 11:24:38
(UTC+02:00)

ISS - Pass Details

Date: 26 August 2020
Orbit: 418 x 420 km, 51.6° (Epoch: 13 August)

Event Time Altitude Azimuth Distance (km) Brightness Sun altitude
Rises 12:36:44 0° 282° (WNW) 2,366 -0.1 50.0°
Reaches altitude 10° 12:39:27 10° 259° (WSW) 1,498 -0.8 50.1°
Drops below altitude 10° 12:43:30 10° 184° (S) 1,492 -0.1 50.2°
Enters shadow 13:18:09 -67° 121° (ESE) 12,187 3.3 50.3°
Exits shadow 13:53:46 -42° 321° (NW) 9,217 2.5 49.1°
Maximum altitude 05:27:22 17° 140° (SE) 1,123 -1.4 -7.0°
